Year,Month,Day,Hour,Minute,Value (Times are PST for temperature in C)
2012,07,25,00,00,16.90
2012,07,25,00,01,16.90
2012,07,25,00,02,16.90
2012,07,25,00,03,16.90
2012,07,25,00,04,16.90
2012,07,25,00,05,16.90
2012,07,25,00,06,16.90
2012,07,25,00,07,16.90
2012,07,25,00,08,16.90
2012,07,25,00,09,16.80
2012,07,25,00,10,16.80
2012,07,25,00,11,16.80
2012,07,25,00,12,16.80
2012,07,25,00,13,16.80
2012,07,25,00,14,16.80
2012,07,25,00,15,16.80
2012,07,25,00,16,16.80
2012,07,25,00,17,16.80
2012,07,25,00,18,16.70
2012,07,25,00,19,16.70
2012,07,25,00,20,16.70
2012,07,25,00,21,16.70
2012,07,25,00,22,16.70
2012,07,25,00,23,16.70
2012,07,25,00,24,16.70
2012,07,25,00,25,16.70
2012,07,25,00,26,16.70
2012,07,25,00,27,16.70
2012,07,25,00,28,16.70
2012,07,25,00,29,16.80
2012,07,25,00,30,16.80
2012,07,25,00,31,16.80
2012,07,25,00,32,16.80
2012,07,25,00,33,16.80
2012,07,25,00,34,16.70
2012,07,25,00,35,16.70
2012,07,25,00,36,16.70
2012,07,25,00,37,16.70
2012,07,25,00,38,16.70
2012,07,25,00,39,16.70
2012,07,25,00,40,16.60
2012,07,25,00,41,16.60
2012,07,25,00,42,16.60
2012,07,25,00,43,16.60
2012,07,25,00,44,16.50
2012,07,25,00,45,16.50
2012,07,25,00,46,16.40
2012,07,25,00,47,16.40
2012,07,25,00,48,16.40
2012,07,25,00,49,16.40
2012,07,25,00,50,16.30
2012,07,25,00,51,16.30
2012,07,25,00,52,16.30
2012,07,25,00,53,16.30
2012,07,25,00,54,16.20
2012,07,25,00,55,16.20
2012,07,25,00,56,16.20
2012,07,25,00,57,16.20
2012,07,25,00,58,16.10
2012,07,25,00,59,16.10
2012,07,25,01,00,16.00
2012,07,25,01,01,16.00
2012,07,25,01,02,15.90
2012,07,25,01,03,15.90
2012,07,25,01,04,15.80
2012,07,25,01,05,15.80
2012,07,25,01,06,15.70
2012,07,25,01,07,15.70
2012,07,25,01,08,15.70
2012,07,25,01,09,15.60
2012,07,25,01,10,15.60
2012,07,25,01,11,15.50
2012,07,25,01,12,15.50
2012,07,25,01,13,15.40
2012,07,25,01,14,15.40
2012,07,25,01,15,15.30
2012,07,25,01,16,15.30
2012,07,25,01,17,15.30
2012,07,25,01,18,15.20
2012,07,25,01,19,15.20
2012,07,25,01,20,15.10
2012,07,25,01,21,15.10
2012,07,25,01,22,15.10
2012,07,25,01,23,15.10
2012,07,25,01,24,15.00
2012,07,25,01,25,15.00
2012,07,25,01,26,15.00
2012,07,25,01,27,14.90
2012,07,25,01,28,14.90
2012,07,25,01,29,14.90
2012,07,25,01,30,14.80
2012,07,25,01,31,14.80
2012,07,25,01,32,14.80
2012,07,25,01,33,14.80
2012,07,25,01,34,14.70
2012,07,25,01,35,14.70
2012,07,25,01,36,14.70
2012,07,25,01,37,14.70
2012,07,25,01,38,14.60
2012,07,25,01,39,14.60
2012,07,25,01,40,14.60
2012,07,25,01,41,14.60
2012,07,25,01,42,14.50
2012,07,25,01,43,14.50
2012,07,25,01,44,14.50
2012,07,25,01,45,14.50
2012,07,25,01,46,14.40
2012,07,25,01,47,14.40
2012,07,25,01,48,14.40
2012,07,25,01,49,14.40
2012,07,25,01,50,14.40
2012,07,25,01,51,14.30
2012,07,25,01,52,14.30
2012,07,25,01,53,14.30
2012,07,25,01,54,14.30
2012,07,25,01,55,14.30
2012,07,25,01,56,14.30
2012,07,25,01,57,14.30
2012,07,25,01,58,14.30
2012,07,25,01,59,14.30
2012,07,25,02,00,14.20
2012,07,25,02,01,14.20
2012,07,25,02,02,14.20
2012,07,25,02,03,14.20
2012,07,25,02,04,14.20
2012,07,25,02,05,14.20
2012,07,25,02,06,14.20
2012,07,25,02,07,14.20
2012,07,25,02,08,14.20
2012,07,25,02,09,14.20
2012,07,25,02,10,14.20
2012,07,25,02,11,14.10
2012,07,25,02,12,14.10
2012,07,25,02,13,14.10
2012,07,25,02,14,14.10
2012,07,25,02,15,14.10
2012,07,25,02,16,14.10
2012,07,25,02,17,14.00
2012,07,25,02,18,14.00
2012,07,25,02,19,14.00
2012,07,25,02,20,14.00
2012,07,25,02,21,14.00
2012,07,25,02,22,14.00
2012,07,25,02,23,14.00
2012,07,25,02,24,13.90
2012,07,25,02,25,13.90
2012,07,25,02,26,13.90
2012,07,25,02,27,13.90
2012,07,25,02,28,13.90
2012,07,25,02,29,13.90
2012,07,25,02,30,13.90
2012,07,25,02,31,13.90
2012,07,25,02,32,13.80
2012,07,25,02,33,13.80
2012,07,25,02,34,13.80
2012,07,25,02,35,13.80
2012,07,25,02,36,13.80
2012,07,25,02,37,13.80
2012,07,25,02,38,13.80
2012,07,25,02,39,13.80
2012,07,25,02,40,13.80
2012,07,25,02,41,13.80
2012,07,25,02,42,13.70
2012,07,25,02,43,13.70
2012,07,25,02,44,13.70
2012,07,25,02,45,13.70
2012,07,25,02,46,13.70
2012,07,25,02,47,13.70
2012,07,25,02,48,13.70
2012,07,25,02,49,13.70
2012,07,25,02,50,13.70
2012,07,25,02,51,13.60
2012,07,25,02,52,13.60
2012,07,25,02,53,13.60
2012,07,25,02,54,13.60
2012,07,25,02,55,13.60
2012,07,25,02,56,13.60
2012,07,25,02,57,13.50
2012,07,25,02,58,13.50
2012,07,25,02,59,13.50
2012,07,25,03,00,13.50
2012,07,25,03,01,13.40
2012,07,25,03,02,13.40
2012,07,25,03,03,13.40
2012,07,25,03,04,13.40
2012,07,25,03,05,13.40
2012,07,25,03,06,13.40
2012,07,25,03,07,13.40
2012,07,25,03,08,13.40
2012,07,25,03,09,13.30
2012,07,25,03,10,13.30
2012,07,25,03,11,13.30
2012,07,25,03,12,13.30
2012,07,25,03,13,13.30
2012,07,25,03,14,13.30
2012,07,25,03,15,13.30
2012,07,25,03,16,13.30
2012,07,25,03,17,13.20
2012,07,25,03,18,13.20
2012,07,25,03,19,13.20
2012,07,25,03,20,13.20
2012,07,25,03,21,13.20
2012,07,25,03,22,13.20
2012,07,25,03,23,13.20
2012,07,25,03,24,13.20
2012,07,25,03,25,13.20
2012,07,25,03,26,13.20
2012,07,25,03,27,13.20
2012,07,25,03,28,13.20
2012,07,25,03,29,13.20
2012,07,25,03,30,13.20
2012,07,25,03,31,13.20
2012,07,25,03,32,13.20
2012,07,25,03,33,13.20
2012,07,25,03,34,13.20
2012,07,25,03,35,13.10
2012,07,25,03,36,13.10
2012,07,25,03,37,13.10
2012,07,25,03,38,13.10
2012,07,25,03,39,13.10
2012,07,25,03,40,13.10
2012,07,25,03,41,13.10
2012,07,25,03,42,13.10
2012,07,25,03,43,13.10
2012,07,25,03,44,13.10
2012,07,25,03,45,13.10
2012,07,25,03,46,13.00
2012,07,25,03,47,13.00
2012,07,25,03,48,13.00
2012,07,25,03,49,13.00
2012,07,25,03,50,13.00
2012,07,25,03,51,13.00
2012,07,25,03,52,12.90
2012,07,25,03,53,12.90
2012,07,25,03,54,12.90
2012,07,25,03,55,12.90
2012,07,25,03,56,12.90
2012,07,25,03,57,12.90
2012,07,25,03,58,12.90
2012,07,25,03,59,12.90
2012,07,25,04,00,12.90
2012,07,25,04,01,12.90
2012,07,25,04,02,12.90
2012,07,25,04,03,12.80
2012,07,25,04,04,12.80
2012,07,25,04,05,12.90
2012,07,25,04,06,12.80
2012,07,25,04,07,12.80
2012,07,25,04,08,12.80
2012,07,25,04,09,12.80
2012,07,25,04,10,12.80
2012,07,25,04,11,12.90
2012,07,25,04,12,12.90
2012,07,25,04,13,12.90
2012,07,25,04,14,12.90
2012,07,25,04,15,12.90
2012,07,25,04,16,12.90
2012,07,25,04,17,12.90
2012,07,25,04,18,12.80
2012,07,25,04,19,12.90
2012,07,25,04,20,12.90
2012,07,25,04,21,12.80
2012,07,25,04,22,12.80
2012,07,25,04,23,12.80
2012,07,25,04,24,12.80
2012,07,25,04,25,12.80
2012,07,25,04,26,12.80
2012,07,25,04,27,12.80
2012,07,25,04,28,12.80
2012,07,25,04,29,12.80
2012,07,25,04,30,12.80
2012,07,25,04,31,12.70
2012,07,25,04,32,12.70
2012,07,25,04,33,12.70
2012,07,25,04,34,12.70
2012,07,25,04,35,12.70
2012,07,25,04,36,12.70
2012,07,25,04,37,12.70
2012,07,25,04,38,12.70
2012,07,25,04,39,12.70
2012,07,25,04,40,12.70
2012,07,25,04,41,12.70
2012,07,25,04,42,12.70
2012,07,25,04,43,12.70
2012,07,25,04,44,12.70
2012,07,25,04,45,12.60
2012,07,25,04,46,12.60
2012,07,25,04,47,12.60
2012,07,25,04,48,12.60
2012,07,25,04,49,12.60
2012,07,25,04,50,12.60
2012,07,25,04,51,12.60
2012,07,25,04,52,12.60
2012,07,25,04,53,12.60
2012,07,25,04,54,12.50
2012,07,25,04,55,12.50
2012,07,25,04,56,12.50
2012,07,25,04,57,12.50
2012,07,25,04,58,12.50
2012,07,25,04,59,12.40
2012,07,25,05,00,12.40
2012,07,25,05,01,12.40
2012,07,25,05,02,12.40
2012,07,25,05,03,12.40
2012,07,25,05,04,12.40
2012,07,25,05,05,12.40
2012,07,25,05,06,12.40
2012,07,25,05,07,12.40
2012,07,25,05,08,12.40
2012,07,25,05,09,12.40
2012,07,25,05,10,12.40
2012,07,25,05,11,12.40
2012,07,25,05,12,12.30
2012,07,25,05,13,12.30
2012,07,25,05,14,12.30
2012,07,25,05,15,12.30
2012,07,25,05,16,12.30
2012,07,25,05,17,12.30
2012,07,25,05,18,12.30
2012,07,25,05,19,12.30
2012,07,25,05,20,12.30
2012,07,25,05,21,12.30
2012,07,25,05,22,12.30
2012,07,25,05,23,12.30
2012,07,25,05,24,12.30
2012,07,25,05,25,12.30
2012,07,25,05,26,12.30
2012,07,25,05,27,12.30
2012,07,25,05,28,12.30
2012,07,25,05,29,12.20
2012,07,25,05,30,12.20
2012,07,25,05,31,12.20
2012,07,25,05,32,12.20
2012,07,25,05,33,12.20
2012,07,25,05,34,12.20
2012,07,25,05,35,12.20
2012,07,25,05,36,12.20
2012,07,25,05,37,12.20
2012,07,25,05,38,12.20
2012,07,25,05,39,12.20
2012,07,25,05,40,12.20
2012,07,25,05,41,12.20
2012,07,25,05,42,12.20
2012,07,25,05,43,12.20
2012,07,25,05,44,12.20
2012,07,25,05,45,12.20
2012,07,25,05,46,12.20
2012,07,25,05,47,12.20
2012,07,25,05,48,12.20
2012,07,25,05,49,12.30
2012,07,25,05,50,12.30
2012,07,25,05,51,12.30
2012,07,25,05,52,12.30
2012,07,25,05,53,12.30
2012,07,25,05,54,12.30
2012,07,25,05,55,12.30
2012,07,25,05,56,12.30
2012,07,25,05,57,12.30
2012,07,25,05,58,12.30
2012,07,25,05,59,12.30
2012,07,25,06,00,12.30
2012,07,25,06,01,12.30
2012,07,25,06,02,12.40
2012,07,25,06,03,12.40
2012,07,25,06,04,12.40
2012,07,25,06,05,12.40
2012,07,25,06,06,12.40
2012,07,25,06,07,12.40
2012,07,25,06,08,12.40
2012,07,25,06,09,12.40
2012,07,25,06,10,12.40
2012,07,25,06,11,12.40
2012,07,25,06,12,12.50
2012,07,25,06,13,12.50
2012,07,25,06,14,12.50
2012,07,25,06,15,12.50
2012,07,25,06,16,12.50
2012,07,25,06,17,12.50
2012,07,25,06,18,12.50
2012,07,25,06,19,12.50
2012,07,25,06,20,12.50
2012,07,25,06,21,12.50
2012,07,25,06,22,12.50
2012,07,25,06,23,12.50
2012,07,25,06,24,12.50
2012,07,25,06,25,12.50
2012,07,25,06,26,12.50
2012,07,25,06,27,12.50
2012,07,25,06,28,12.50
2012,07,25,06,29,12.50
2012,07,25,06,30,12.50
2012,07,25,06,31,12.50
2012,07,25,06,32,12.50
2012,07,25,06,33,12.50
2012,07,25,06,34,12.60
2012,07,25,06,35,12.60
2012,07,25,06,36,12.60
2012,07,25,06,37,12.60
2012,07,25,06,38,12.60
2012,07,25,06,39,12.60
2012,07,25,06,40,12.60
2012,07,25,06,41,12.60
2012,07,25,06,42,12.60
2012,07,25,06,43,12.60
2012,07,25,06,44,12.60
2012,07,25,06,45,12.60
2012,07,25,06,46,12.60
2012,07,25,06,47,12.60
2012,07,25,06,48,12.60
2012,07,25,06,49,12.70
2012,07,25,06,50,12.70
2012,07,25,06,51,12.70
2012,07,25,06,52,12.70
2012,07,25,06,53,12.70
2012,07,25,06,54,12.70
2012,07,25,06,55,12.70
2012,07,25,06,56,12.70
2012,07,25,06,57,12.80
2012,07,25,06,58,12.80
2012,07,25,06,59,12.80
2012,07,25,07,00,12.80
2012,07,25,07,01,12.80
2012,07,25,07,02,12.80
2012,07,25,07,03,12.80
2012,07,25,07,04,12.80
2012,07,25,07,05,12.80
2012,07,25,07,06,12.80
2012,07,25,07,07,12.80
2012,07,25,07,08,12.80
2012,07,25,07,09,12.90
2012,07,25,07,10,12.90
2012,07,25,07,11,12.90
2012,07,25,07,12,12.90
2012,07,25,07,13,12.90
2012,07,25,07,14,12.90
2012,07,25,07,15,12.90
2012,07,25,07,16,12.90
2012,07,25,07,17,12.90
2012,07,25,07,18,12.90
2012,07,25,07,19,12.90
2012,07,25,07,20,12.90
2012,07,25,07,21,13.00
2012,07,25,07,22,13.00
2012,07,25,07,23,13.00
2012,07,25,07,24,13.00
2012,07,25,07,25,13.00
2012,07,25,07,26,13.10
2012,07,25,07,27,13.10
2012,07,25,07,28,13.10
2012,07,25,07,29,13.10
2012,07,25,07,30,13.20
2012,07,25,07,31,13.20
2012,07,25,07,32,13.30
2012,07,25,07,33,13.40
2012,07,25,07,34,13.50
2012,07,25,07,35,13.60
2012,07,25,07,36,13.70
2012,07,25,07,37,13.80
2012,07,25,07,38,13.90
2012,07,25,07,39,14.10
2012,07,25,07,40,14.20
2012,07,25,07,41,14.30
2012,07,25,07,42,14.40
2012,07,25,07,43,14.40
2012,07,25,07,44,14.50
2012,07,25,07,45,14.60
2012,07,25,07,46,14.70
2012,07,25,07,47,14.70
2012,07,25,07,48,14.80
2012,07,25,07,49,14.80
2012,07,25,07,50,14.80
2012,07,25,07,51,14.80
2012,07,25,07,52,14.90
2012,07,25,07,53,14.90
2012,07,25,07,54,14.90
2012,07,25,07,55,15.00
2012,07,25,07,56,15.00
2012,07,25,07,57,15.00
2012,07,25,07,58,15.00
2012,07,25,07,59,15.10
2012,07,25,08,00,15.10
2012,07,25,08,01,15.10
2012,07,25,08,02,15.10
2012,07,25,08,03,15.10
2012,07,25,08,04,15.20
2012,07,25,08,05,15.20
2012,07,25,08,06,15.20
2012,07,25,08,07,15.20
2012,07,25,08,08,15.20
2012,07,25,08,09,15.30
2012,07,25,08,10,15.30
2012,07,25,08,11,15.30
2012,07,25,08,12,15.30
2012,07,25,08,13,15.30
2012,07,25,08,14,15.40
2012,07,25,08,15,15.40
2012,07,25,08,16,15.40
2012,07,25,08,17,15.40
2012,07,25,08,18,15.40
2012,07,25,08,19,15.50
2012,07,25,08,20,15.50
2012,07,25,08,21,15.50
2012,07,25,08,22,15.50
2012,07,25,08,23,15.50
2012,07,25,08,24,15.50
2012,07,25,08,25,15.50
2012,07,25,08,26,15.50
2012,07,25,08,27,15.50
2012,07,25,08,28,15.50
2012,07,25,08,29,15.50
2012,07,25,08,30,15.50
2012,07,25,08,31,15.50
2012,07,25,08,32,15.50
2012,07,25,08,33,15.50
2012,07,25,08,34,15.60
2012,07,25,08,35,15.60
2012,07,25,08,36,15.60
2012,07,25,08,37,15.60
2012,07,25,08,38,15.60
2012,07,25,08,39,15.60
2012,07,25,08,40,15.70
2012,07,25,08,41,15.70
2012,07,25,08,42,15.70
2012,07,25,08,43,15.70
2012,07,25,08,44,15.70
2012,07,25,08,45,15.80
2012,07,25,08,46,15.80
2012,07,25,08,47,15.80
2012,07,25,08,48,15.90
2012,07,25,08,49,15.90
2012,07,25,08,50,16.00
2012,07,25,08,51,16.00
2012,07,25,08,52,16.00
2012,07,25,08,53,16.10
2012,07,25,08,54,16.10
2012,07,25,08,55,16.20
2012,07,25,08,56,16.20
2012,07,25,08,57,16.30
2012,07,25,08,58,16.30
2012,07,25,08,59,16.40
2012,07,25,09,00,16.40
2012,07,25,09,01,16.50
2012,07,25,09,02,16.50
2012,07,25,09,03,16.50
2012,07,25,09,04,16.50
2012,07,25,09,05,16.50
2012,07,25,09,06,16.50
2012,07,25,09,07,16.50
2012,07,25,09,08,16.50
2012,07,25,09,09,16.50
2012,07,25,09,10,16.60
2012,07,25,09,11,16.60
2012,07,25,09,12,16.60
2012,07,25,09,13,16.60
2012,07,25,09,14,16.60
2012,07,25,09,15,16.60
2012,07,25,09,16,16.70
2012,07,25,09,17,16.70
2012,07,25,09,18,16.70
2012,07,25,09,19,16.70
2012,07,25,09,20,16.80
2012,07,25,09,21,16.80
2012,07,25,09,22,16.80
2012,07,25,09,23,16.80
2012,07,25,09,24,16.80
2012,07,25,09,25,16.80
2012,07,25,09,26,16.80
2012,07,25,09,27,16.80
2012,07,25,09,28,16.80
2012,07,25,09,29,16.80
2012,07,25,09,30,16.80
2012,07,25,09,31,16.80
2012,07,25,09,32,16.80
2012,07,25,09,33,16.80
2012,07,25,09,34,16.70
2012,07,25,09,35,16.70
2012,07,25,09,36,16.70
2012,07,25,09,37,16.70
2012,07,25,09,38,16.70
2012,07,25,09,39,16.70
2012,07,25,09,40,16.70
2012,07,25,09,41,16.70
2012,07,25,09,42,16.70
2012,07,25,09,43,16.70
2012,07,25,09,44,16.70
2012,07,25,09,45,16.70
2012,07,25,09,46,16.70
2012,07,25,09,47,16.70
2012,07,25,09,48,16.80
2012,07,25,09,49,16.80
2012,07,25,09,50,16.80
2012,07,25,09,51,16.90
2012,07,25,09,52,16.90
2012,07,25,09,53,16.90
2012,07,25,09,54,16.90
2012,07,25,09,55,16.90
2012,07,25,09,56,16.90
2012,07,25,09,57,16.90
2012,07,25,09,58,16.90
2012,07,25,09,59,16.90
2012,07,25,10,00,16.90
2012,07,25,10,01,16.90
2012,07,25,10,02,16.90
2012,07,25,10,03,17.00
2012,07,25,10,04,17.00
2012,07,25,10,05,17.10
2012,07,25,10,06,17.10
2012,07,25,10,07,17.10
2012,07,25,10,08,17.10
2012,07,25,10,09,17.10
2012,07,25,10,10,17.20
2012,07,25,10,11,17.20
2012,07,25,10,12,17.20
2012,07,25,10,13,17.20
2012,07,25,10,14,17.20
2012,07,25,10,15,17.20
2012,07,25,10,16,17.20
2012,07,25,10,17,17.20
2012,07,25,10,18,17.30
2012,07,25,10,19,17.30
2012,07,25,10,20,17.30
2012,07,25,10,21,17.30
2012,07,25,10,22,17.40
2012,07,25,10,23,17.40
2012,07,25,10,24,17.40
2012,07,25,10,25,17.40
2012,07,25,10,26,17.50
2012,07,25,10,27,17.60
2012,07,25,10,28,17.60
2012,07,25,10,29,17.60
2012,07,25,10,30,17.70
2012,07,25,10,31,17.60
2012,07,25,10,32,17.60
2012,07,25,10,33,17.50
2012,07,25,10,34,17.50
2012,07,25,10,35,17.40
2012,07,25,10,36,17.40
2012,07,25,10,37,17.50
2012,07,25,10,38,17.60
2012,07,25,10,39,17.60
2012,07,25,10,40,17.70
2012,07,25,10,41,17.70
2012,07,25,10,42,17.80
2012,07,25,10,43,17.80
2012,07,25,10,44,17.80
2012,07,25,10,45,17.80
2012,07,25,10,46,17.80
2012,07,25,10,47,17.70
2012,07,25,10,48,17.70
2012,07,25,10,49,17.70
2012,07,25,10,50,17.70
2012,07,25,10,51,17.70
2012,07,25,10,52,17.70
2012,07,25,10,53,17.80
2012,07,25,10,54,17.80
2012,07,25,10,55,17.80
2012,07,25,10,56,17.80
2012,07,25,10,57,17.80
2012,07,25,10,58,17.80
2012,07,25,10,59,17.70
2012,07,25,11,00,17.70
2012,07,25,11,01,17.70
2012,07,25,11,02,17.70
2012,07,25,11,03,17.80
2012,07,25,11,04,17.80
2012,07,25,11,05,17.80
2012,07,25,11,06,17.90
2012,07,25,11,07,17.90
2012,07,25,11,08,17.90
2012,07,25,11,09,17.90
2012,07,25,11,10,18.00
2012,07,25,11,11,18.00
2012,07,25,11,12,18.00
2012,07,25,11,13,17.90
2012,07,25,11,14,17.90
2012,07,25,11,15,17.90
2012,07,25,11,16,17.90
2012,07,25,11,17,17.80
2012,07,25,11,18,17.80
2012,07,25,11,19,17.80
2012,07,25,11,20,17.80
2012,07,25,11,21,17.80
2012,07,25,11,22,17.90
2012,07,25,11,23,17.90
2012,07,25,11,24,17.90
2012,07,25,11,25,17.90
2012,07,25,11,26,18.00
2012,07,25,11,27,18.00
2012,07,25,11,28,18.10
2012,07,25,11,29,18.10
2012,07,25,11,30,18.10
2012,07,25,11,31,18.20
2012,07,25,11,32,18.20
2012,07,25,11,33,18.20
2012,07,25,11,34,18.20
2012,07,25,11,35,18.30
2012,07,25,11,36,18.30
2012,07,25,11,37,18.20
2012,07,25,11,38,18.20
2012,07,25,11,39,18.20
2012,07,25,11,40,18.20
2012,07,25,11,41,18.30
2012,07,25,11,42,18.30
2012,07,25,11,43,18.30
2012,07,25,11,44,18.40
2012,07,25,11,45,18.40
2012,07,25,11,46,18.50
2012,07,25,11,47,18.60
2012,07,25,11,48,18.60
2012,07,25,11,49,18.70
2012,07,25,11,50,18.70
2012,07,25,11,51,18.70
2012,07,25,11,52,18.70
2012,07,25,11,53,18.80
2012,07,25,11,54,18.80
2012,07,25,11,55,18.80
2012,07,25,11,56,18.90
2012,07,25,11,57,18.90
2012,07,25,11,58,18.90
2012,07,25,11,59,18.90
2012,07,25,12,00,19.00
2012,07,25,12,01,19.10
2012,07,25,12,02,19.10
2012,07,25,12,03,19.20
2012,07,25,12,04,19.20
2012,07,25,12,05,19.20
2012,07,25,12,06,19.10
2012,07,25,12,07,19.10
2012,07,25,12,08,19.00
2012,07,25,12,09,18.90
2012,07,25,12,10,18.90
2012,07,25,12,11,18.90
2012,07,25,12,12,19.00
2012,07,25,12,13,19.00
2012,07,25,12,14,19.10
2012,07,25,12,15,19.10
2012,07,25,12,16,19.10
2012,07,25,12,17,19.10
2012,07,25,12,18,19.00
2012,07,25,12,19,19.00
2012,07,25,12,20,18.90
2012,07,25,12,21,18.80
2012,07,25,12,22,18.90
2012,07,25,12,23,18.90
2012,07,25,12,24,18.90
2012,07,25,12,25,19.00
2012,07,25,12,26,19.00
2012,07,25,12,27,19.10
2012,07,25,12,28,19.20
2012,07,25,12,29,19.30
2012,07,25,12,30,19.30
2012,07,25,12,31,19.30
2012,07,25,12,32,19.40
2012,07,25,12,33,19.50
2012,07,25,12,34,19.60
2012,07,25,12,35,19.60
2012,07,25,12,36,19.70
2012,07,25,12,37,19.80
2012,07,25,12,38,19.80
2012,07,25,12,39,19.70
2012,07,25,12,40,19.60
2012,07,25,12,41,19.60
2012,07,25,12,42,19.60
2012,07,25,12,43,19.60
2012,07,25,12,44,19.60
2012,07,25,12,45,19.50
2012,07,25,12,46,19.50
2012,07,25,12,47,19.50
2012,07,25,12,48,19.50
2012,07,25,12,49,19.40
2012,07,25,12,50,19.40
2012,07,25,12,51,19.30
2012,07,25,12,52,19.30
2012,07,25,12,53,19.30
2012,07,25,12,54,19.30
2012,07,25,12,55,19.30
2012,07,25,12,56,19.30
2012,07,25,12,57,19.40
2012,07,25,12,58,19.40
2012,07,25,12,59,19.40
2012,07,25,13,00,19.30
2012,07,25,13,01,19.30
2012,07,25,13,02,19.30
2012,07,25,13,03,19.30
2012,07,25,13,04,19.30
2012,07,25,13,05,19.40
2012,07,25,13,06,19.50
2012,07,25,13,07,19.60
2012,07,25,13,08,19.80
2012,07,25,13,09,19.90
2012,07,25,13,10,19.90
2012,07,25,13,11,19.90
2012,07,25,13,12,19.90
2012,07,25,13,13,19.90
2012,07,25,13,14,19.90
2012,07,25,13,15,19.80
2012,07,25,13,16,19.80
2012,07,25,13,17,19.80
2012,07,25,13,18,19.80
2012,07,25,13,19,19.80
2012,07,25,13,20,19.80
2012,07,25,13,21,19.90
2012,07,25,13,22,19.90
2012,07,25,13,23,20.00
2012,07,25,13,24,20.10
2012,07,25,13,25,20.10
2012,07,25,13,26,20.20
2012,07,25,13,27,20.20
2012,07,25,13,28,20.20
2012,07,25,13,29,20.20
2012,07,25,13,30,20.20
2012,07,25,13,31,20.10
2012,07,25,13,32,20.10
2012,07,25,13,33,20.10
2012,07,25,13,34,20.20
2012,07,25,13,35,20.30
2012,07,25,13,36,20.30
2012,07,25,13,37,20.30
2012,07,25,13,38,20.30
2012,07,25,13,39,20.20
2012,07,25,13,40,20.20
2012,07,25,13,41,20.30
2012,07,25,13,42,20.40
2012,07,25,13,43,20.40
2012,07,25,13,44,20.50
2012,07,25,13,45,20.60
2012,07,25,13,46,20.70
2012,07,25,13,47,20.70
2012,07,25,13,48,20.80
2012,07,25,13,49,20.90
2012,07,25,13,50,21.00
2012,07,25,13,51,21.00
2012,07,25,13,52,21.00
2012,07,25,13,53,21.10
2012,07,25,13,54,21.10
2012,07,25,13,55,21.10
2012,07,25,13,56,21.10
2012,07,25,13,57,21.10
2012,07,25,13,58,21.20
2012,07,25,13,59,21.30
2012,07,25,14,00,21.30
2012,07,25,14,01,21.20
2012,07,25,14,02,21.20
2012,07,25,14,03,21.10
2012,07,25,14,04,21.10
2012,07,25,14,05,21.10
2012,07,25,14,06,21.10
2012,07,25,14,07,21.20
2012,07,25,14,08,21.20
2012,07,25,14,09,21.20
2012,07,25,14,10,21.20
2012,07,25,14,11,21.30
2012,07,25,14,12,21.40
2012,07,25,14,13,21.40
2012,07,25,14,14,21.40
2012,07,25,14,15,21.50
2012,07,25,14,16,21.60
2012,07,25,14,17,21.60
2012,07,25,14,18,21.70
2012,07,25,14,19,21.80
2012,07,25,14,20,21.80
2012,07,25,14,21,21.90
2012,07,25,14,22,21.90
2012,07,25,14,23,21.80
2012,07,25,14,24,21.80
2012,07,25,14,25,21.80
2012,07,25,14,26,21.80
2012,07,25,14,27,21.70
2012,07,25,14,28,21.60
2012,07,25,14,29,21.50
2012,07,25,14,30,21.40
2012,07,25,14,31,21.40
2012,07,25,14,32,21.40
2012,07,25,14,33,21.40
2012,07,25,14,34,21.40
2012,07,25,14,35,21.40
2012,07,25,14,36,21.50
2012,07,25,14,37,21.50
2012,07,25,14,38,21.60
2012,07,25,14,39,21.70
2012,07,25,14,40,21.80
2012,07,25,14,41,21.80
2012,07,25,14,42,21.70
2012,07,25,14,43,21.70
2012,07,25,14,44,21.70
2012,07,25,14,45,21.80
2012,07,25,14,46,21.80
2012,07,25,14,47,21.80
2012,07,25,14,48,21.80
2012,07,25,14,49,21.90
2012,07,25,14,50,21.90
2012,07,25,14,51,22.00
2012,07,25,14,52,21.90
2012,07,25,14,53,21.90
2012,07,25,14,54,21.90
2012,07,25,14,55,21.90
2012,07,25,14,56,21.90
2012,07,25,14,57,21.80
2012,07,25,14,58,21.70
2012,07,25,14,59,21.70
2012,07,25,15,00,21.70
2012,07,25,15,01,21.70
2012,07,25,15,02,21.70
2012,07,25,15,03,21.80
2012,07,25,15,04,21.80
2012,07,25,15,05,21.80
2012,07,25,15,06,21.90
2012,07,25,15,07,22.00
2012,07,25,15,08,22.00
2012,07,25,15,09,22.00
2012,07,25,15,10,22.00
2012,07,25,15,11,22.00
2012,07,25,15,12,22.10
2012,07,25,15,13,22.10
2012,07,25,15,14,22.30
2012,07,25,15,15,22.30
2012,07,25,15,16,22.30
2012,07,25,15,17,22.30
2012,07,25,15,18,22.40
2012,07,25,15,19,22.50
2012,07,25,15,20,22.60
2012,07,25,15,21,22.60
2012,07,25,15,22,22.60
2012,07,25,15,23,22.60
2012,07,25,15,24,22.60
2012,07,25,15,25,22.60
2012,07,25,15,26,22.50
2012,07,25,15,27,22.40
2012,07,25,15,28,22.40
2012,07,25,15,29,22.30
2012,07,25,15,30,22.20
2012,07,25,15,31,22.20
2012,07,25,15,32,22.20
2012,07,25,15,33,22.30
2012,07,25,15,34,22.30
2012,07,25,15,35,22.40
2012,07,25,15,36,22.40
2012,07,25,15,37,22.50
2012,07,25,15,38,22.60
2012,07,25,15,39,22.60
2012,07,25,15,40,22.60
2012,07,25,15,41,22.70
2012,07,25,15,42,22.80
2012,07,25,15,43,22.90
2012,07,25,15,44,22.90
2012,07,25,15,45,22.90
2012,07,25,15,46,22.90
2012,07,25,15,47,22.90
2012,07,25,15,48,22.90
2012,07,25,15,49,23.00
2012,07,25,15,50,23.10
2012,07,25,15,51,23.00
2012,07,25,15,52,23.00
2012,07,25,15,53,22.90
2012,07,25,15,54,22.90
2012,07,25,15,55,22.90
2012,07,25,15,56,23.00
2012,07,25,15,57,23.10
2012,07,25,15,58,23.10
2012,07,25,15,59,23.10
2012,07,25,16,00,23.10
2012,07,25,16,01,23.00
2012,07,25,16,02,22.90
2012,07,25,16,03,22.90
2012,07,25,16,04,23.00
2012,07,25,16,05,23.00
2012,07,25,16,06,23.00
2012,07,25,16,07,23.10
2012,07,25,16,08,23.10
2012,07,25,16,09,23.20
2012,07,25,16,10,23.10
2012,07,25,16,11,23.10
2012,07,25,16,12,23.10
2012,07,25,16,13,23.10
2012,07,25,16,14,23.10
2012,07,25,16,15,23.10
2012,07,25,16,16,23.00
2012,07,25,16,17,23.00
2012,07,25,16,18,22.90
2012,07,25,16,19,23.00
2012,07,25,16,20,23.00
2012,07,25,16,21,23.00
2012,07,25,16,22,23.00
2012,07,25,16,23,23.10
2012,07,25,16,24,23.10
2012,07,25,16,25,23.20
2012,07,25,16,26,23.10
2012,07,25,16,27,23.00
2012,07,25,16,28,23.00
2012,07,25,16,29,23.00
2012,07,25,16,30,22.90
2012,07,25,16,31,22.80
2012,07,25,16,32,22.70
2012,07,25,16,33,22.70
2012,07,25,16,34,22.60
2012,07,25,16,35,22.60
2012,07,25,16,36,22.70
2012,07,25,16,37,22.70
2012,07,25,16,38,22.60
2012,07,25,16,39,22.50
2012,07,25,16,40,22.40
2012,07,25,16,41,22.30
2012,07,25,16,42,22.30
2012,07,25,16,43,22.30
2012,07,25,16,44,22.20
2012,07,25,16,45,22.20
2012,07,25,16,46,22.20
2012,07,25,16,47,22.20
2012,07,25,16,48,22.20
2012,07,25,16,49,22.10
2012,07,25,16,50,22.10
2012,07,25,16,51,22.10
2012,07,25,16,52,22.10
2012,07,25,16,53,22.10
2012,07,25,16,54,22.00
2012,07,25,16,55,22.00
2012,07,25,16,56,22.00
2012,07,25,16,57,22.00
2012,07,25,16,58,22.10
2012,07,25,16,59,22.10
2012,07,25,17,00,22.20
2012,07,25,17,01,22.20
2012,07,25,17,02,22.20
2012,07,25,17,03,22.30
2012,07,25,17,04,22.40
2012,07,25,17,05,22.40
2012,07,25,17,06,22.40
2012,07,25,17,07,22.40
2012,07,25,17,08,22.50
2012,07,25,17,09,22.50
2012,07,25,17,10,22.40
2012,07,25,17,11,22.40
2012,07,25,17,12,22.50
2012,07,25,17,13,22.50
2012,07,25,17,14,22.60
2012,07,25,17,15,22.70
2012,07,25,17,16,22.80
2012,07,25,17,17,22.90
2012,07,25,17,18,23.00
2012,07,25,17,19,23.00